Tracking 25620 objects as of 19-May-2022
HD Live streaming from Space Station
objects crossing your sky now

FALCON 9 DEB

Track FALCON 9 DEB now!
10-day predictions


NORAD ID: 44296
Int'l Code: 2019-029BP
Perigee: 407.2 km
Apogee: 418.0 km
Inclination: 53.0 °
Period: 92.7 minutes
Semi major axis: 6783 km
RCS: Unknown
Launch date: May 24, 2019
Source: United States (US)
Launch site: AIR FORCE EASTERN TEST RANGE (AFETR)

Note: This is SATELLITE DEBRIS
aabbcc
Your satellite tracking list
Your tracking list is empty




NASA's NSSDC Master Catalog

Two Line Element Set (TLE):
1 44296U 19029BP  22138.24995578  .00034436  00000-0  53029-3 0  9993
2 44296  52.9998  14.9895 0007985 164.2315 195.8944 15.53863830169790
Source of the keplerian elements: AFSPC